Regional Weather Roundup
Issued by NWS

Home | Current Version | Previous Version | Text Only | Print | Product List | Glossary On
Versions: 1 2 3 4 5 6 7 8 9 10 11 12 13 14 15 16 17 18 19 20 21 22 23 24 25 26 27 28 29 30 31 32 33 34 35 36 37 38 39 40 41 42 43 44 45 46 47 48 49 50
000
ASHW40 PHFO 292343
RWRHI

WEATHER ROUNDUP FOR HAWAII
NATIONAL WEATHER SERVICE HONOLULU HI
100 PM HST WED JUL 29 2015

THIS IS AN AUTOMATED REPORT THAT HAS NOT BEEN QUALITY CONTROLLED.

NOTE..."FAIR" INDICATES FEW OR NO CLOUDS BELOW 12,000 FEET WITH NO
SIGNIFICANT WEATHER AND/OR OBSTRUCTIONS TO VISIBILITY.

* - THESE SITES REPORT LIMITED FIELDS

HIZ001>004-300000-
KAUAI-NIIHAU-

CITY           SKY/WX    TMP DP  RH WIND       PRES   REMARKS
LIHUE APT      CLOUDY    87  73  62 E13       29.97F HX  94
PORT ALLEN*    NOT AVBL
POIPU*           N/A     86 N/A N/A NE8G16      N/A
PRINCEVILLE*     N/A     84 N/A N/A MISG        N/A
KOKOLE POINT*  NOT AVBL
MOLOAA DAIRY*  NOT AVBL
WAIMEA HTS*      N/A     88  68  51 E15G24      N/A  HX  91
PUU OPAE*        N/A     79  68  69 W8G15       N/A
PUU LUA*       NOT AVBL
MAKAHA RIDGE*    N/A     81  68  65 N3          N/A
$$

HIZ005>011-300000-
OAHU-

CITY           SKY/WX    TMP DP  RH WIND       PRES   REMARKS
HONOLULU       MOSUNNY   88  68  51 NE21G28   29.93F HX  91
KALAELOA       MOSUNNY   91  67  44 E8G18     29.94F HX  94
KANEOHE MCB    MOSUNNY   85  73  67 E12G21    29.93F HX  91
WHEELER FIELD  MOSUNNY   88  63  42 E12G17    29.98F
BELLOWS*         N/A    N/A N/A N/A E17         N/A
KAHUKU*          N/A    N/A N/A N/A E10G20      N/A
WHEELER*       NOT AVBL
WAIANAE HARBOR NOT AVBL
DILLINGHAM*      N/A     95  70  43 MISG        N/A  HX 101
KAHUKU TRN*      N/A     75  63  64 E12G28      N/A
KAWAILOA*        N/A     82  66  57 E8G26       N/A
KII*             N/A     84  75  74 E17         N/A  HX  92
MAKUA RANGE*     N/A     90  72  55 NW3G9       N/A  HX  96
OAHU FOREST NW   N/A     72  72 100 CALM        N/A
SCHOFIELD BRK*   N/A     72  52  49 MISG        N/A
SCHOFIELD S*   NOT AVBL
WAIANAE VLY*     N/A     93  64  38 MISG        N/A  HX  95
KUAOKALA*        N/A     86  72  62 NW12G17     N/A  HX  92
HONOULIUULI*   NOT AVBL
MOKUOLOE IS*     N/A    N/A N/A N/A MISG        N/A
PALEHUA*         N/A     79  63  57 NE7G22      N/A
WAIAWA PHB*    NOT AVBL
$$

HIZ012>013-300000-
MOLOKAI-

CITY           SKY/WX    TMP DP  RH WIND       PRES   REMARKS
MOLOKAI AIRPT  SUNNY     88  68  51 NE14G22   29.94F HX  91
KALAUPAPA      NOT AVBL
MAKAPULAPAI*     N/A     88  72  58 E21G29      N/A  HX  94
MOLOKAI 1*       N/A     82  57  42 E5G18       N/A
PUU ALII*        N/A     74  63  68 CALM        N/A
$$

HIZ016-300000-
KAHOOLAWE-

CITY           SKY/WX    TMP DP  RH WIND       PRES   REMARKS
KAHOOLAWE*       N/A     81 N/A N/A E20G28      N/A
HAKIOAWA*        N/A     82  70  66 MISG      30.36
HONOKANAIA*      N/A     90  69  50 E18G33    29.94F HX  95
KANELOA*         N/A     82  72  69 E25G40    30.02F
KEALIALALO*      N/A     84  66  54 E18G38    29.93F
LUA MAKIKA*    NOT AVBL
$$

HIZ014>015-300000-
LANAI-

CITY           SKY/WX    TMP DP  RH WIND       PRES   REMARKS
LANAI CITY     FAIR      82  70  65 NW9G21    29.99F
LANAI 1*         N/A     72  59  64 NE18G26     N/A
$$

HIZ017>028-300000-
MAUI-

CITY           SKY/WX    TMP DP  RH WIND       PRES   REMARKS
KAHULUI        MOSUNNY   90  70  51 E21G26    29.92F HX  95
KAPALUA-W MAUI MOSUNNY   90  66  45 NE20      29.94F HX  92
HANA AIRPORT   SUNNY     84  73  70 NE3       29.98F HX  91
HANA*            N/A     84 N/A N/A E9G15       N/A
HALEAKALA SUMM NOT AVBL
MAALAEA BAY*   NOT AVBL
HALEAKALA*     NOT AVBL
KAUPO GAP*       N/A    N/A N/A N/A S7G17       N/A
KULA 1*          N/A     68  60  75 NW7         N/A
$$

HIZ023>026-300000-
BIG ISLAND OF HAWAII COAST AND LOWER SLOPES-

CITY           SKY/WX    TMP DP  RH WIND       PRES   REMARKS
KAILUA KONA    SUNNY     88  73  61 SW10      29.90F HX  95
HILO           MOSUNNY   88  72  58 NE10      29.96F HX  94
HONOKAA*       NOT AVBL
KAWAIHAE MWT*    N/A     86 N/A N/A W7G13       N/A
KAWAIHAE*        N/A     82 N/A N/A W9          N/A
SOUTH POINT*     N/A     81 N/A N/A NE17G24     N/A
UPOLU AIRPORT*   N/A    N/A N/A N/A E21G30      N/A
KAMUELA*       MOCLDY    79  64  61 NE21      30.04S
HAKALAU*         N/A     69  54  58 NE6G12      N/A
KALOKO-HONOKO*   N/A     90  73  58 SW7         N/A  HX  98
PALI 2*          N/A     82  64  54 N13G25      N/A
KEALAKOMO*       N/A     75  59  57 E17G26      N/A
KAUPULEHU*       N/A     88  70  55 W14G24      N/A  HX  92
KAPAPALA*        N/A     77  69  75 SE6G12      N/A
LOWER KAHUKU*    N/A     70  66  88 NE3G13      N/A
PUHE CS*         N/A     90  72  55 W5G12       N/A  HX  96
PUHO CS*         N/A     87  71  59 W3G9        N/A  HX  93
PTA KEAMUKU*     N/A     79  63  57 CALM        N/A
WAIKOLOA*        N/A     84  68  58 NW6G17      N/A
$$

HIZ027>028-300000-
BIG ISLAND OF HAWAII INTERIOR AND SUMMMITS-

CITY           SKY/WX    TMP DP  RH WIND       PRES   REMARKS
BRADSHAW FIELD PTSUNNY   74  58  55 W10G17    30.29F
MK VISITOR CEN NOT AVBL
MAUNA KEA*     NOT AVBL
MAUNA LOA*       N/A    N/A N/A N/A MISG        N/A
MAUNA LOA 1*   NOT AVBL
PTA KIPUKA*      N/A     73  59  60 NW8G16      N/A
PTA RANGE 17*    N/A     55  41  58 W13G21      N/A
PTA WEST*        N/A     79  66  65 NW16G26     N/A
NENE CABIN*      N/A     64  54  68 E9G16       N/A
AHUMOA*          N/A     72  58  62 N9G17       N/A
PTA PORTABLE*  NOT AVBL
PUU MALI*        N/A     70  46  43 NE23G32     N/A
$$

HIC003-300000-
NORTHWEST ISLANDS-

CITY           SKY/WX    TMP DP  RH WIND       PRES   REMARKS
MIDWAY ISLAND  MOSUNNY   84  66  54 NE13      30.04S
MIDWAY NOS*    NOT AVBL
FRENCH FRIGATE NOT AVBL
$$

PHZ110>124-180-300000-
BUOY REPORTS

STATION/POSITION TIME  TEMP    WIND        PRES    WAVE   SWELL
                       AIR SEA DIR/SP/G            HT/PER HT/DIR
                 (UTC) (F)     (DEG/KT/KT) (MB)    (FT/S) (FT/D)
BUOY 51001       NOT AVBL
BUOY 51101       2300   81 81  150/ 12/ 14 1014.3F   6/11   5/180
BUOY 51100       NOT AVBL
BUOY 51002       2300   81 82   90/ 17/ 21 1012.2F   8/ 7   3/140
BUOY 51003       2300   82 83  130/ 17/ 19 1012.8F   7/ 8   3
BUOY 51004       2222   81 82   50/ 14/ 16 1012.1F   6/ 7   5/ 80
BARBERS PT BUOY  NOT AVBL
WAIMEA BAY BUOY  2300      81                N/A     3/ 6   2/260
KAILUA BAY BUOY  2300      81                N/A     5/ 6   2/120
LANAI BUOY       NOT AVBL
BARBERS PT 2     2300      83                N/A     5/13   3/200
PAUWELA MAUI     2300      80                N/A     5/ 4   2/ 80
HILO             NOT AVBL
KANEOHE BAY BUOY 2300      80                N/A     5/ 7
HANALEI KAUAI    2300      81                N/A     4/ 7   2/ 80
KAHULUI HARBOR   2300   83 82   40/ 15/ 23 1012.9
HONOLULU HARBOR  2300   86 82  100/  7/ 18 1013.8
KILO NALU        NOT AVBL
HILO HARBOR      2300   86 78   40/  9/ 12 1014.1
MOKUOLOE         2200   86                   N/A
NAWILIWILI       2300   81      80/ 12/ 14 1014.5
WHOTS BUOY       NOT AVBL
BUOY 51028       NOT AVBL
$$

......................KEY........................................
  SKY/WX - SKY CONDITIONS/PRESENT WEATHER
  TMP    - TEMPERATURE IN FAHRENHEIT
  DWPT   - DEWPOINT IN FAHRENHEIT
  RH     - RELATIVE HUMIDITY IN PERCENT
  WIND   - DIRECTION AND SPEED /MPH FOR ISLANDS...KTS FOR BUOYS/
  PRES   - MEAN SEA LEVEL PRESSURE IN INCHES OF HG
  VSB    - VISIBILITY IN MILES
  HX     - HEAT INDEX
  WCI    - WIND CHILL INDEX
  VRB    - VARIABLE WIND DIRECTION
  N/A    - NOT AVAILABLE



USA.gov is the U.S. government's official web portal to all federal, state and local government web resources and services.